Location: ??????????
(48.4699°N, 37.9573°E)
Time: 13:39:26
(UTC+00:00)

Okean 1-7 Rocket - Pass Details

Date: 20 January 2021
Orbit: 615 x 650 km, 82.5° (Epoch: 26 February)

Event Time Altitude Azimuth Distance (km) Brightness Sun altitude
Rises 15:57:06 0° 188° (S) 2,941 7.3 -17.7°
Reaches altitude 10° 15:59:20 10° 189° (S) 2,040 6.4 -18.1°
Maximum altitude 16:03:52 88° 273° (W) 657 3.6 -18.8°
Drops below altitude 10° 16:08:29 10° 9° (N) 2,066 6.1 -19.6°
Enters shadow 16:09:38 - 10° (N) 2,526 6.5 -19.7°
